Location: Newark
(45.0500°N, 0.5014°W)
Time: 04:57:36
(UTC+00:00)

N. Korean satellite - Visible Passes

Search period start: 22 January 2020 00:00
Search period end: 01 February 2020 00:00
Orbit: 454 x 507 km, 97.2° (Epoch: 21 January)

Date Brightness Start Highest point End Pass type
(mag) Time Alt. Az. Time Alt. Az. Time Alt. Az.
22 Jan 8.1 05:28:08 10° NNE 05:31:27 37° E 05:34:48 10° SSE visible
22 Jan 8.2 07:02:23 10° NNW 07:04:34 16° WNW 07:06:46 10° WSW visible
22 Jan 9.0 17:39:01 10° SSW 17:41:58 27° W 17:44:55 10° NW visible
23 Jan 9.4 05:03:15 10° NE 05:05:50 19° E 05:08:26 10° SE visible
23 Jan 7.4 06:36:09 10° N 06:39:15 29° WNW 06:42:24 10° SW visible
24 Jan 6.5 06:10:21 10° N 06:13:51 60° WNW 06:17:25 10° SSW visible
25 Jan 7.0 05:44:50 10° NNE 05:48:23 62° E 05:51:58 10° S visible
25 Jan 9.7 17:56:37 10° SW 17:58:55 17° W 18:01:15 10° NW visible
26 Jan 8.6 05:19:37 10° NNE 05:22:48 29° E 05:26:01 10° SSE visible
26 Jan 7.9 06:53:25 10° NNW 06:56:01 19° WNW 06:58:39 10° WSW visible
26 Jan 8.5 17:30:08 10° SSW 17:33:16 34° W 17:36:27 10° NNW visible
27 Jan 9.7 04:54:57 10° NE 04:57:09 15° E 04:59:22 10° SE visible
27 Jan 7.1 06:27:21 10° N 06:30:41 37° WNW 06:34:02 10° SW visible
28 Jan 6.4 06:01:39 10° N 06:05:15 78° WNW 06:08:53 10° SSW visible
28 Jan 10.2 18:15:08 10° WSW 18:15:56 11° W 18:16:43 10° WNW visible
29 Jan 7.6 05:36:13 10° NNE 05:39:44 48° E 05:43:17 10° S visible
29 Jan 9.5 17:47:32 10° SW 17:50:12 21° W 17:52:55 10° NW visible
30 Jan 9.0 05:11:08 10° NE 05:14:08 24° E 05:17:09 10° SSE visible
30 Jan 7.7 06:44:29 10° NNW 06:47:26 24° WNW 06:50:25 10° WSW visible
31 Jan 10.0 04:46:49 10° ENE 04:48:27 13° E 04:50:05 10° ESE visible
31 Jan 6.8 06:18:35 10° N 06:22:04 47° WNW 06:25:36 10° SSW visible
